GW1230 Weather Reports


time (UTC)temp
C
wind
direction
speed
KPH
gust
KPH
rain 1hr
cm
rain 24hr
cm
rain mn
cm
humidity
%
barometer
mb
20260906220658 22 331 1.6 3.2 0.00 0.00 0.00 55 1015.1
20260906220153 21 273 6.4 8.0 0.00 0.00 0.00 56 1014.9
20260906215652 22 354 6.4 8.0 0.00 0.00 0.00 56 1015.0
20260906215151 22 321 8.0 11.3 0.00 0.00 0.00 55 1015.1
20260906214649 21 334 4.8 8.0 0.00 0.00 0.00 57 1015.1
20260906214144 21 344 9.7 12.9 0.00 0.00 0.00 56 1014.8
20260906213644 21 345 4.8 8.0 0.00 0.00 0.00 58 1014.7
20260906213138 22 290 9.7 12.9 0.00 0.00 0.00 56 1014.9
20260906212636 21 10 9.7 16.1 0.00 0.00 0.00 56 1014.8
20260906212132 22 347 1.6 4.8 0.00 0.00 0.00 55 1014.8
20260906211631 22 286 0.0 1.6 0.00 0.00 0.00 55 1015.0
20260906211126 21 326 3.2 4.8 0.00 0.00 0.00 57 1014.9
20260906210622 21 63 4.8 9.7 0.00 0.00 0.00 56 1014.8
20260906210117 21 249 6.4 9.7 0.00 0.00 0.00 56 1015.0
20260906205612 21 326 4.8 8.0 0.00 0.00 0.00 56 1015.0
20260906205109 22 330 4.8 12.9 0.00 0.00 0.00 55 1014.9
20260906204607 22 332 1.6 3.2 0.00 0.00 0.00 55 1015.1
20260906204102 22 327 0.0 1.6 0.00 0.00 0.00 53 1015.0
20260906203602 21 349 3.2 8.0 0.00 0.00 0.00 57 1015.2
20260906203057 21 331 9.7 11.3 0.00 0.00 0.00 57 1015.2
20260906202554 21 346 9.7 12.9 0.00 0.00 0.00 56 1015.1
20260906202053 20 339 3.2 8.0 0.00 0.00 0.00 59 1015.1
20260906201548 20 9 6.4 11.3 0.00 0.00 0.00 59 1015.2
20260906201048 20 278 0.0 1.6 0.00 0.00 0.00 60 1015.3
20260906200544 21 305 3.2 4.8 0.00 0.00 0.00 59 1015.2
20260906200039 20 333 3.2 8.0 0.00 0.00 0.00 59 1015.3
20260906195534 21 335 9.7 14.5 0.00 0.00 0.00 59 1015.3
20260906195031 21 285 3.2 9.7 0.00 0.00 0.00 58 1015.1
20260906194526 20 286 6.4 9.7 0.00 0.00 0.00 60 1015.4
20260906194022 20 292 3.2 4.8 0.00 0.00 0.00 60 1015.6
20260906193522 20 345 8.0 11.3 0.00 0.00 0.00 59 1015.4
20260906193017 20 321 4.8 4.8 0.00 0.00 0.00 63 1015.6
20260906192513 20 301 6.4 9.7 0.00 0.00 0.00 63 1015.6
20260906192012 20 20 9.7 14.5 0.00 0.00 0.00 64 1015.7
20260906191507 19 330 6.4 9.7 0.00 0.00 0.00 66 1015.8
20260906191006 20 345 11.3 12.9 0.00 0.00 0.00 64 1016.0
20260906190505 20 341 1.6 3.2 0.00 0.00 0.00 65 1015.8
20260906190000 20 265 3.2 3.2 0.00 0.00 0.00 65 1015.8
20260906185459 19 251 3.2 4.8 0.00 0.00 0.00 67 1016.0
20260906184958 19 338 4.8 8.0 0.00 0.00 0.00 67 1015.9
20260906184453 20 314 3.2 3.2 0.00 0.00 0.00 65 1015.6
20260906183948 18 338 6.4 8.0 0.00 0.00 0.00 67 1015.8
20260906183439 18 266 4.8 8.0 0.00 0.00 0.00 66 1015.7
20260906182934 18 331 6.4 8.0 0.00 0.00 0.00 68 1015.9
20260906182430 18 297 6.4 9.7 0.00 0.00 0.00 67 1015.9
20260906181926 20 332 9.7 12.9 0.00 0.00 0.00 65 1016.0
20260906181421 19 279 4.8 4.8 0.00 0.00 0.00 65 1015.9
20260906180917 19 285 6.4 11.3 0.00 0.00 0.00 65 1015.9
20260906180412 19 7 6.4 9.7 0.00 0.00 0.00 66 1016.3
20260906175909 20 7 8.0 12.9 0.00 0.00 0.00 62 1016.2
20260906175405 19 328 6.4 9.7 0.00 0.00 0.00 65 1016.4
20260906174903 19 45 4.8 4.8 0.00 0.00 0.00 63 1016.2
20260906174403 19 357 6.4 8.0 0.00 0.00 0.00 64 1016.2
20260906173857 19 9 4.8 9.7 0.00 0.00 0.00 65 1016.2
20260906173353 18 57 8.0 11.3 0.00 0.00 0.00 66 1016.4
20260906172852 18 327 3.2 3.2 0.00 0.00 0.00 66 1016.2
20260906172348 18 338 6.4 8.0 0.00 0.00 0.00 66 1016.3
20260906171843 18 34 3.2 3.2 0.00 0.00 0.00 68 1016.4
20260906171338 18 353 8.0 9.7 0.00 0.00 0.00 68 1016.6
20260906170833 18 49 4.8 4.8 0.00 0.00 0.00 69 1016.5
20260906170330 17 29 1.6 1.6 0.00 0.00 0.00 71 1016.4
20260906165826 17 319 4.8 8.0 0.00 0.00 0.00 71 1016.4
20260906165325 17 3 4.8 8.0 0.00 0.00 0.00 70 1016.4
20260906164820 18 25 8.0 9.7 0.00 0.00 0.00 70 1016.5
20260906164319 17 289 1.6 1.6 0.00 0.00 0.00 73 1016.4
20260906163815 17 8 1.6 3.2 0.00 0.00 0.00 74 1016.3
20260906163311 16 1 4.8 8.0 0.00 0.00 0.00 76 1016.2
20260906162809 16 308 4.8 8.0 0.00 0.00 0.00 78 1016.3
20260906162308 15 302 3.2 3.2 0.00 0.00 0.00 80 1016.1
20260906161803 15 323 9.7 12.9 0.00 0.00 0.00 81 1016.3
20260906161302 15 290 1.6 1.6 0.00 0.00 0.00 83 1016.3
20260906160801 15 296 4.8 4.8 0.00 0.00 0.00 83 1016.3
20260906160255 15 345 8.0 11.3 0.00 0.00 0.00 84 1016.3
20260906155753 15 292 11.3 14.5 0.00 0.00 0.00 84 1016.6
20260906155242 15 338 4.8 9.7 0.00 0.00 0.00 84 1016.4
20260906154738 15 290 8.0 9.7 0.00 0.00 0.00 84 1016.4
20260906154232 15 322 6.4 11.3 0.00 0.00 0.00 83 1016.3
20260906153731 15 300 3.2 4.8 0.00 0.00 0.00 83 1016.5
20260906153225 15 292 0.0 0.0 0.00 0.00 0.00 83 1016.3
20260906152720 15 317 0.0 1.6 0.00 0.00 0.00 84 1016.2
20260906152215 15 305 3.2 3.2 0.00 0.00 0.00 84 1016.1
20260906151709 15 339 4.8 4.8 0.00 0.00 0.00 83 1016.2
20260906151206 15 356 1.6 3.2 0.00 0.00 0.00 84 1016.2
20260906150701 15 36 6.4 8.0 0.00 0.00 0.00 85 1016.2
20260906150156 15 25 8.0 9.7 0.00 0.00 0.00 84 1016.3
20260906145654 15 351 1.6 3.2 0.00 0.00 0.00 85 1016.5
20260906145149 14 9 3.2 3.2 0.00 0.00 0.00 86 1016.2
20260906144649 14 340 3.2 4.8 0.00 0.00 0.00 86 1016.1
20260906144144 14 6 0.0 0.0 0.00 0.00 0.00 86 1016.2
20260906143643 14 331 0.0 0.0 0.00 0.00 0.00 87 1016.4
20260906143141 13 326 0.0 0.0 0.00 0.00 0.00 87 1016.2
20260906142640 13 323 0.0 0.0 0.00 0.00 0.00 88 1016.1
20260906142135 13 315 0.0 0.0 0.00 0.00 0.00 89 1016.3
20260906141634 13 341 0.0 0.0 0.00 0.00 0.00 89 1016.2
20260906141129 12 342 3.2 3.2 0.00 0.00 0.00 89 1016.3
20260906140628 12 322 1.6 1.6 0.00 0.00 0.00 89 1016.1
20260906140124 12 340 1.6 3.2 0.00 0.00 0.00 89 1016.2
20260906135621 12 333 0.0 0.0 0.00 0.00 0.00 89 1016.1
20260906135116 12 308 0.0 0.0 0.00 0.00 0.00 89 1016.1
20260906134612 12 308 0.0 0.0 0.00 0.00 0.00 89 1016.1
20260906134107 12 319 0.0 0.0 0.00 0.00 0.00 89 1016.3
20260906133603 12 321 0.0 0.0 0.00 0.00 0.00 89 1016.2
20260906133057 12 313 0.0 0.0 0.00 0.00 0.00 89 1016.0
20260906132552 12 333 0.0 0.0 0.00 0.00 0.00 89 1016.0
20260906132048 12 339 0.0 0.0 0.00 0.00 0.00 89 1016.4
20260906131543 12 338 0.0 0.0 0.00 0.00 0.00 89 1016.2
20260906131038 12 317 0.0 0.0 0.00 0.00 0.00 89 1016.1
20260906130538 12 317 0.0 0.0 0.00 0.00 0.00 89 1015.9
20260906130033 12 325 0.0 0.0 0.00 0.00 0.00 88 1016.0
20260906125530 12 333 0.0 0.0 0.00 0.00 0.00 88 1015.9
20260906125025 12 349 0.0 0.0 0.00 0.00 0.00 88 1016.1
20260906124520 12 32 3.2 3.2 0.00 0.00 0.00 88 1015.9
20260906124015 12 328 0.0 0.0 0.00 0.00 0.00 88 1015.7
20260906123514 12 338 0.0 0.0 0.00 0.00 0.00 88 1016.0
20260906123010 12 325 0.0 0.0 0.00 0.00 0.00 88 1016.1
20260906122504 12 349 0.0 0.0 0.00 0.00 0.00 88 1016.0
20260906122000 13 347 0.0 0.0 0.00 0.00 0.00 88 1016.1
20260906121456 13 339 0.0 0.0 0.00 0.00 0.00 87 1016.3
20260906120952 13 339 0.0 0.0 0.00 0.00 0.00 87 1016.3
20260906120447 13 334 0.0 0.0 0.00 0.00 0.00 87 1016.3
20260906115944 13 334 0.0 0.0 0.00 0.00 0.00 87 1016.3
20260906115439 13 42 0.0 0.0 0.00 0.00 0.00 87 1016.1
20260906114938 13 25 0.0 0.0 0.00 0.00 0.00 87 1016.1
20260906114433 13 339 0.0 0.0 0.00 0.00 0.00 87 1016.1
20260906113929 13 330 1.6 3.2 0.00 0.00 0.00 87 1016.1
20260906113427 13 334 1.6 1.6 0.00 0.00 0.00 87 1016.2
20260906112923 13 335 0.0 0.0 0.00 0.00 0.00 86 1015.9
20260906112419 13 331 0.0 0.0 0.00 0.00 0.00 86 1016.2
20260906111914 13 32 1.6 1.6 0.00 0.00 0.00 86 1016.4
20260906111413 13 7 0.0 1.6 0.00 0.00 0.00 86 1016.2
20260906110908 13 19 4.8 8.0 0.00 0.00 0.00 86 1016.6
20260906110404 13 16 6.4 8.0 0.00 0.00 0.00 86 1016.4
20260906105903 13 358 3.2 4.8 0.00 0.00 0.00 86 1016.2
20260906105359 13 20 1.6 1.6 0.00 0.00 0.00 85 1016.3
20260906104854 13 25 3.2 3.2 0.00 0.00 0.00 85 1016.2
20260906104353 13 44 1.6 1.6 0.00 0.00 0.00 85 1016.3
20260906103852 13 22 3.2 4.8 0.00 0.00 0.00 85 1016.3
20260906103350 13 352 3.2 4.8 0.00 0.00 0.00 85 1016.3
20260906102846 13 323 0.0 0.0 0.00 0.00 0.00 84 1016.2
20260906102345 13 354 0.0 0.0 0.00 0.00 0.00 84 1016.1
20260906101840 13 302 0.0 0.0 0.00 0.00 0.00 83 1016.2
20260906101335 13 305 0.0 0.0 0.00 0.00 0.00 83 1016.1
20260906100831 13 310 0.0 0.0 0.00 0.00 0.00 83 1016.2
20260906100330 13 319 0.0 0.0 0.00 0.00 0.00 82 1016.2
20260906095825 14 320 0.0 0.0 0.00 0.00 0.00 82 1016.2
20260906095321 14 321 0.0 1.6 0.00 0.00 0.00 82 1016.1
20260906094820 14 352 0.0 0.0 0.00 0.00 0.00 82 1016.0
20260906094315 14 329 1.6 1.6 0.00 0.00 0.00 82 1016.0
20260906093812 14 345 4.8 4.8 0.00 0.00 0.00 82 1016.2
20260906093307 14 346 0.0 0.0 0.00 0.00 0.00 82 1016.2
20260906092801 13 330 0.0 0.0 0.00 0.00 0.00 82 1015.9
20260906092256 14 314 0.0 0.0 0.00 0.00 0.00 81 1015.9
20260906091752 14 8 0.0 0.0 0.00 0.00 0.00 81 1016.2
20260906091248 14 10 3.2 3.2 0.00 0.00 0.00 80 1016.1
20260906090744 14 4 0.0 0.0 0.00 0.00 0.00 80 1016.1
20260906090243 14 25 1.6 3.2 0.00 0.00 0.00 80 1016.1
20260906085742 14 351 0.0 0.0 0.00 0.00 0.00 80 1016.2
20260906085242 14 339 4.8 4.8 0.00 0.00 0.00 80 1016.0
20260906084736 14 346 3.2 3.2 0.00 0.00 0.00 80 1016.2
20260906084231 14 307 0.0 0.0 0.00 0.00 0.00 79 1016.4
20260906083726 14 307 0.0 0.0 0.00 0.00 0.00 79 1016.2
20260906083221 14 320 1.6 1.6 0.00 0.00 0.00 78 1016.3
20260906082716 15 326 1.6 1.6 0.00 0.00 0.00 78 1016.3
20260906082211 15 322 3.2 3.2 0.00 0.00 0.00 78 1016.4
20260906081708 15 321 3.2 4.8 0.00 0.00 0.00 77 1016.2
20260906081202 15 322 3.2 3.2 0.00 0.00 0.00 77 1016.2
20260906080659 15 321 1.6 1.6 0.00 0.00 0.00 76 1016.2
20260906080155 15 328 0.0 0.0 0.00 0.00 0.00 75 1016.4
20260906075654 15 10 3.2 3.2 0.00 0.00 0.00 75 1016.3
20260906075149 15 340 1.6 1.6 0.00 0.00 0.00 74 1016.5
20260906074644 15 342 1.6 3.2 0.00 0.00 0.00 74 1016.0
20260906074143 15 356 0.0 0.0 0.00 0.00 0.00 74 1016.1
20260906073638 15 344 4.8 4.8 0.00 0.00 0.00 74 1016.2
20260906073134 15 8 4.8 4.8 0.00 0.00 0.00 73 1016.5
20260906072629 15 342 3.2 3.2 0.00 0.00 0.00 73 1016.3
20260906072124 15 327 3.2 3.2 0.00 0.00 0.00 73 1016.3
20260906071621 15 0 4.8 8.0 0.00 0.00 0.00 73 1016.6
20260906071115 16 330 1.6 1.6 0.00 0.00 0.00 72 1016.4
20260906070612 16 351 3.2 4.8 0.00 0.00 0.00 72 1016.4
20260906070107 16 351 4.8 8.0 0.00 0.00 0.00 72 1016.4
20260906065606 16 10 6.4 8.0 0.00 0.03 0.03 73 1016.4
20260906065102 16 352 4.8 4.8 0.00 0.03 0.03 73 1016.5
20260906064558 16 329 4.8 4.8 0.00 0.03 0.03 72 1016.5
20260906064052 16 340 4.8 9.7 0.00 0.03 0.03 72 1016.5
20260906063547 16 340 4.8 9.7 0.00 0.03 0.03 72 1016.4
20260906063044 16 3 8.0 9.7 0.00 0.03 0.03 72 1016.4
20260906062538 16 336 8.0 9.7 0.00 0.03 0.03 72 1016.5
20260906062032 16 313 0.0 0.0 0.00 0.03 0.03 71 1016.5
20260906061529 16 300 1.6 1.6 0.00 0.03 0.03 71 1016.6
20260906061028 16 311 1.6 1.6 0.00 0.03 0.03 70 1016.5
20260906060525 16 340 4.8 4.8 0.00 0.03 0.03 69 1016.3
20260906060022 16 1 4.8 8.0 0.00 0.03 0.03 69 1016.5
20260906055517 16 353 4.8 4.8 0.00 0.03 0.03 69 1016.6
20260906055012 16 337 4.8 8.0 0.00 0.03 0.03 69 1016.6
20260906054507 16 353 4.8 4.8 0.00 0.03 0.03 69 1016.5
20260906054003 16 337 3.2 3.2 0.00 0.03 0.03 69 1016.6
20260906053459 16 355 6.4 9.7 0.00 0.03 0.03 70 1016.5
20260906052954 16 9 4.8 9.7 0.00 0.03 0.03 70 1016.7
20260906052450 16 349 6.4 8.0 0.00 0.03 0.03 70 1016.6
20260906051947 16 350 4.8 4.8 0.00 0.03 0.03 70 1016.6
20260906051442 16 18 8.0 12.9 0.00 0.03 0.03 70 1016.6
20260906050937 16 6 6.4 11.3 0.00 0.03 0.03 70 1016.6
20260906050437 16 9 4.8 4.8 0.00 0.03 0.03 70 1016.6
20260906045936 17 346 3.2 3.2 0.00 0.03 0.03 70 1016.6
20260906045435 17 352 4.8 8.0 0.00 0.03 0.03 70 1016.6
20260906044932 17 3 4.8 8.0 0.00 0.03 0.03 70 1016.8
20260906044426 17 13 4.8 4.8 0.00 0.03 0.03 70 1016.8
20260906043921 17 343 9.7 11.3 0.00 0.03 0.03 70 1016.7
20260906043417 17 359 3.2 4.8 0.00 0.03 0.03 70 1016.8
20260906042913 17 343 8.0 9.7 0.00 0.03 0.03 69 1016.7
20260906042412 17 351 4.8 4.8 0.00 0.03 0.03 70 1016.7
20260906041907 17 358 6.4 9.7 0.00 0.03 0.03 70 1016.7
20260906041402 17 4 11.3 14.5 0.00 0.03 0.03 71 1017.0
20260906040857 17 342 6.4 9.7 0.00 0.03 0.03 72 1016.8
20260906040352 16 309 3.2 3.2 0.00 0.03 0.03 74 1016.9
20260906035848 16 323 4.8 8.0 0.18 0.03 0.03 74 1016.9
20260906035343 17 349 9.7 16.1 0.18 0.03 0.03 73 1017.1
20260906034838 17 326 1.6 3.2 0.00 0.00 0.00 71 1017.0
20260906034333 17 350 1.6 3.2 0.00 0.00 0.00 68 1016.9
20260906033829 18 331 0.0 0.0 0.00 0.00 0.00 64 1017.1
20260906033328 18 328 0.0 0.0 0.00 0.00 0.00 60 1016.6
20260906032825 18 329 0.0 0.0 0.00 0.00 0.00 58 1016.9
20260906032320 18 354 0.0 0.0 0.00 0.00 0.00 58 1016.7
20260906031815 18 357 1.6 3.2 0.00 0.00 0.00 57 1016.8
20260906031311 19 27 0.0 0.0 0.00 0.00 0.00 55 1016.7
20260906030810 18 11 0.0 0.0 0.00 0.00 0.00 55 1016.6
20260906030306 18 319 0.0 0.0 0.00 0.00 0.00 55 1016.7
20260906025805 18 341 0.0 0.0 0.00 0.00 0.00 55 1016.5
20260906025259 18 338 0.0 0.0 0.00 0.00 0.00 55 1016.4
20260906024758 18 341 0.0 0.0 0.00 0.00 0.00 55 1016.6
20260906024257 18 325 0.0 0.0 0.00 0.00 0.00 56 1016.6
20260906023753 18 334 0.0 0.0 0.00 0.00 0.00 57 1016.4
20260906023248 18 337 0.0 0.0 0.00 0.00 0.00 57 1016.4
20260906022744 18 311 0.0 0.0 0.00 0.00 0.00 59 1016.4
20260906022239 18 300 0.0 0.0 0.00 0.00 0.00 59 1016.4
20260906021735 19 290 0.0 0.0 0.00 0.00 0.00 57 1016.6
20260906021234 19 297 3.2 3.2 0.00 0.00 0.00 56 1016.5
20260906020728 20 301 1.6 1.6 0.00 0.00 0.00 54 1016.6
20260906020218 20 303 1.6 3.2 0.00 0.00 0.00 53 1016.3
20260906015718 20 256 4.8 4.8 0.00 0.00 0.00 53 1016.2
20260906015216 20 285 3.2 4.8 0.00 0.00 0.00 53 1016.3
20260906014711 20 299 1.6 1.6 0.00 0.00 0.00 52 1016.3
20260906014207 21 275 1.6 1.6 0.00 0.00 0.00 52 1016.5
20260906013703 21 299 1.6 1.6 0.00 0.00 0.00 52 1016.3
20260906013157 21 300 1.6 4.8 0.00 0.00 0.00 52 1016.3
20260906012657 21 278 0.0 1.6 0.00 0.00 0.00 50 1016.3
20260906012152 21 294 1.6 1.6 0.00 0.00 0.00 52 1016.3
20260906011648 22 303 1.6 1.6 0.00 0.00 0.00 51 1016.3
20260906011142 21 294 4.8 8.0 0.00 0.00 0.00 52 1016.2
20260906010637 22 278 6.4 8.0 0.00 0.00 0.00 52 1016.2
20260906010134 21 254 0.0 0.0 0.00 0.00 0.00 52 1016.1
20260906005633 21 266 8.0 9.7 0.00 0.00 0.00 54 1016.3
20260906005127 22 338 4.8 4.8 0.00 0.00 0.00 52 1016.0
20260906004626 22 306 1.6 1.6 0.00 0.00 0.00 50 1016.2
20260906004121 22 262 0.0 1.6 0.00 0.00 0.00 52 1016.2
20260906003616 22 198 4.8 4.8 0.00 0.00 0.00 52 1016.0
20260906003112 22 243 1.6 1.6 0.00 0.00 0.00 52 1016.0
20260906002607 21 210 0.0 0.0 0.00 0.00 0.00 54 1016.2
20260906002101 21 285 1.6 3.2 0.00 0.00 0.00 55 1016.1
20260906001556 21 156 6.4 8.0 0.00 0.00 0.00 55 1016.1
20260906001051 21 221 0.0 0.0 0.00 0.00 0.00 54 1016.2
20260906000547 21 200 6.4 8.0 0.00 0.00 0.00 54 1016.2
20260906000042 21 163 1.6 3.2 0.00 0.00 0.00 54 1016.1
20260905235541 21 206 3.2 3.2 0.00 0.00 0.00 54 1016.1
20260905235037 21 212 1.6 3.2 0.00 0.00 0.00 54 1016.2
20260905234532 21 276 0.0 0.0 0.00 0.00 0.00 55 1016.2
20260905234027 21 242 0.0 0.0 0.00 0.00 0.00 56 1016.4
20260905233522 21 215 4.8 4.8 0.00 0.00 0.00 58 1016.2
20260905233021 21 15 3.2 3.2 0.00 0.00 0.00 59 1016.0
20260905232517 21 118 0.0 1.6 0.00 0.00 0.00 60 1016.3
20260905232013 21 69 0.0 0.0 0.00 0.00 0.00 58 1016.3
20260905231508 21 78 0.0 1.6 0.00 0.00 0.00 59 1016.4
20260905231004 21 124 0.0 1.6 0.00 0.00 0.00 57 1016.4
20260905230503 21 261 0.0 1.6 0.00 0.00 0.00 57 1016.4
20260905230001 21 184 0.0 0.0 0.00 0.00 0.00 57 1016.6
20260905225456 21 155 3.2 4.8 0.00 0.00 0.00 61 1016.4
20260905224951 20 203 0.0 0.0 0.00 0.00 0.00 60 1016.5
20260905224446 21 187 6.4 9.7 0.00 0.00 0.00 60 1016.7
20260905223945 22 256 0.0 0.0 0.00 0.00 0.00 57 1016.5
20260905223443 21 221 0.0 0.0 0.00 0.00 0.00 60 1016.8
20260905222943 20 157 4.8 4.8 0.00 0.00 0.00 58 1016.8
20260905222438 19 214 1.6 3.2 0.00 0.00 0.00 62 1016.6
20260905221934 19 216 0.0 1.6 0.00 0.00 0.00 64 1016.8
20260905221430 19 143 0.0 0.0 0.00 0.00 0.00 63 1016.9